DELTA 1 DEB, 14913

Orbit data source: Space-Track

DELTA 1 DEB, 14913 is space debris in SSO originally from a launch on Sun, 05 Mar 1978 UTC launched from the Air Force Western Test Range (AFWTR). Debris objects in space refer to the collection of defunct objects orbiting the Earth. Examples of debris include non-operational satellites, rocket bodies, and fragments generated from explosions, collisions, or faulty payload assembly.

Loading next visibility...
Identifier
14913, 1978-026GN
Orbit
SSO
Country
Flag of USUS
Related business
Manufacturer
Unknown
Mission
Spacecraft
Bus & Motor
Unknown
Mass
Unknown
Launch date (UTC)
1978-03-05 (48 years ago)
Launch vehicle
Unknown
Launch site
Air Force Western Test Range (AFWTR)
Object type
Payload
Rocket body
Debris
Shape & HBR
Unknown shape, 0.1 m
Radar Cross Section
Medium (>0.1 m² and <1 m²)

Expand to show TLE details & history
Last TLE update: 2 days ago

TLE from 2 days ago
0 DELTA 1 DEB
1 14913U 78026GN  26171.36364838  .00000736  00000-0  28441-3 0  9997
2 14913  98.7514 207.5961 0090907 158.6214 218.9858 14.30859335247135
Epoch: 2026-06-20T08:43Z
TLE epoch observation values (Epoch: 2026-06-20T08:43:39.220Z)
Latitude
16.73961°
Longitude
165.4636°
Altitude
842.041 km
Speed
7.407 km/s
True Right ascension
13h 39m 49s
True Declination
16° 38' 46"
Sunlit
Object was in daylight at epoch
Visualization orbit readout
Latitude
Unknown
Longitude
Unknown
Altitude
Unknown
Speed
Unknown
Apparent Right ascension
Unknown
Apparent Declination
Unknown
Sunlit
N/A
Visualization observer readout
Local Sidereal Time
00:39:49
Azimuth
Unknown
Elevation
Unknown
Doppler factor
Unknown
Orbital elements
Apogee altitude
851.133 km
Perigee altitude
720.879 km
Semi-major axis
7,164.143 km
Eccentricity
0.00909
Inclination
98.7514°
RAAN
207.5961°
Arg. of periapsis
158.6214°
True anomaly
218.33618°
Mean anomaly
218.9858°
Eccentric anomaly
218.66042°
Mean motion
3.57929 °/min
Orbital period
100.58 mins
BSTAR
0.00028441
Loading maneuver chart data...
Computing Atmospheric mass density...
Loading historical data...
Loading historical data...
Loading historical data...
Loading historical data...
Loading historical data...
Loading historical data...
Loading historical data...

Documentation

Showing up to 5 results
|